Snowfall_Accumulation
0.0 0.0 0.0 0.0 0.0 0.0 0.0 0.0 0.0 0.0 0.0 0.0 0.0 0.0 0.0 0.0 0.0 0.0 0.0 0.0 2.6 15.3 0.6 0.0 0.0 1.7 1.7 2.8 7.3 4.1 7.3 3.5 6.3 10.9 8.1 7.4 6.5 5.2 2.8 0.1 2.4 6.6 3.9 3.5 3.2 7.2 3.5 0.0 0.0 1.0 1.7 0.5 0.3 0.6
0.0 0.0 0.0 0.0 0.0 0.0 0.0 0.0 0.0 0.0 0.0 0.0 0.0 0.0 0.0 0.0 0.0 0.0 0.3 0.0 0.0 5.4 4.3 0.3 0.1 0.0 0.3 1.2 4.2 3.6 6.9 4.5 5.2 10.0 11.3 9.6 8.7 5.9 1.4 3.1 0.2 11.0 6.4 4.9 1.5 0.4 0.0 0.0 0.0 0.0 0.0 0.7 0.3 1.3
0.0 0.0 0.0 0.0 0.0 0.0 0.0 0.0 0.0 0.0 0.0 0.0 0.0 0.0 0.0 0.0 0.0 0.0 0.0 0.0 0.7 10.5 5.5 2.8 2.2 0.3 0.0 0.0 1.0 8.5 3.1 6.2 7.1 8.6 17.1 8.7 12.1 5.0 5.5 3.5 2.5 1.4 0.6 1.5 0.1 0.0 0.0 0.0 0.0 0.0 0.0 0.4 0.2 1.0
0.0 0.0 0.0 0.0 0.0 0.0 0.0 0.0 0.0 0.0 0.0 0.0 0.0 0.0 0.0 0.0 0.0 0.0 0.0 0.0 1.5 10.1 14.9 3.5 0.0 0.9 0.1 0.0 0.8 1.0 2.9 3.8 9.6 11.5 26.1 21.9 13.4 5.4 5.6 5.1 4.6 2.2 0.0 0.3 0.3 0.0 0.2 0.0 0.0 0.1 0.1 0.1 0.1 0.2
0.0 0.0 0.0 0.0 0.0 0.0 0.0 0.0 0.0 0.0 0.0 0.0 0.0 0.0 0.0 0.0 0.0 0.0 0.0 0.0 0.0 8.8 10.9 3.2 1.1 1.1 0.4 0.1 1.7 3.9 8.0 12.5 23.3 32.7 33.6 25.8 9.9 10.7 5.3 9.0 7.7 2.4 2.9 2.2 0.2 0.0 0.9 0.2 0.1 0.0 0.7 0.6 0.5 0.6
0.0 0.0 0.0 0.0 0.0 0.0 0.0 0.0 0.0 0.0 0.0 0.0 0.0 0.0 0.0 0.0 0.0 0.7 3.8 1.8 1.3 3.2 12.7 11.6 1.9 2.2 1.7 1.9 5.3 8.2 9.0 14.2 17.2 18.9 23.2 17.0 10.5 15.7 16.9 11.5 4.6 2.3 1.0 1.8 2.3 0.0 0.2 0.2 0.1 0.3 0.9 0.3 0.9 1.2
0.0 0.0 0.0 0.0 0.0 0.0 0.0 0.0 0.0 0.0 0.0 0.0 0.0 0.0 0.0 0.0 0.0 3.1 3.7 1.7 1.0 2.1 8.3 20.1 6.9 2.7 3.2 3.5 4.8 7.7 7.4 9.6 12.0 13.8 14.9 12.6 11.4 9.6 12.8 9.9 6.5 3.7 2.0 0.8 0.1 1.4 1.1 0.3 1.4 0.5 0.7 0.9 1.1 2.0
0.0 0.0 0.0 0.0 0.0 0.0 0.0 0.0 0.0 0.0 0.0 0.0 0.0 0.0 0.0 0.0 0.0 2.0 0.9 0.0 1.5 5.3 6.0 20.3 8.5 4.4 1.8 4.5 7.5 3.5 8.8 6.8 9.1 10.3 10.5 10.3 8.9 8.3 19.9 12.3 10.1 7.1 4.1 2.7 1.9 1.5 2.1 1.6 0.9 1.1 1.1 1.2 1.5 3.4
0.0 0.0 0.0 0.0 0.0 0.0 0.0 0.0 0.0 0.0 0.0 0.0 0.0 0.0 0.0 1.6 3.5 2.6 0.0 0.0 1.4 5.3 20.8 11.1 9.1 9.1 1.6 3.6 6.1 8.0 7.0 13.1 6.7 13.3 10.6 5.2 9.5 22.2 20.2 15.2 11.8 10.4 7.6 8.1 3.5 3.3 3.3 2.6 3.2 3.2 2.8 2.9 3.2 5.7
0.0 0.0 0.0 0.0 0.0 0.0 0.0 0.0 0.0 0.0 0.0 0.0 0.0 9.2 24.2 5.0 0.0 0.0 3.0 6.8 15.0 13.6 11.0 13.5 1.5 6.2 3.0 3.8 7.7 9.1 6.1 8.8 16.0 9.8 4.2 10.1 22.5 21.3 20.1 17.7 16.2 14.8 13.7 9.4 6.5 8.8 5.6 5.8 5.9 6.5 6.8 6.5 6.0 7.4
0.0 0.0 0.0 0.0 0.0 0.0 0.0 0.0 0.0 0.0 0.0 0.0 10.7 16.3 4.9 0.5 3.5 5.6 27.6 28.3 15.5 18.6 5.3 4.3 3.9 6.5 3.0 9.8 9.5 7.6 12.2 8.0 19.1 7.0 3.9 12.3 20.6 27.7 20.3 17.6 17.1 16.1 14.8 14.7 11.5 11.4 8.0 8.1 8.7 6.6 7.3 6.8 6.9 6.1
0.0 0.0 0.0 0.0 0.0 0.0 0.0 0.0 0.0 0.0 11.0 1.0 0.4 1.4 3.0 12.9 22.4 31.9 29.2 13.3 9.2 3.7 2.4 4.9 5.8 5.3 3.8 4.3 12.8 9.8 16.9 15.4 16.7 4.2 8.9 17.7 26.3 23.6 17.8 19.3 18.8 16.8 14.2 15.8 11.6 11.0 10.0 8.9 7.3 6.4 6.9 7.3 6.9 7.1
0.0 0.0 0.0 0.0 0.0 0.0 0.0 0.0 0.0 0.0 0.0 3.1 17.2 40.8 37.9 32.9 37.9 26.9 17.3 6.5 3.1 2.6 3.3 6.0 5.8 2.6 2.2 5.3 11.4 13.2 15.5 12.2 3.7 9.6 9.6 17.9 19.9 16.9 16.7 14.4 15.5 15.0 13.4 13.0 11.9 11.8 9.5 8.8 6.4 5.1 6.2 8.0 5.8 4.9
0.0 0.0 0.0 0.0 0.0 0.0 0.0 0.0 0.0 0.0 5.7 34.4 54.7 66.5 33.8 27.2 11.7 8.9 7.3 5.7 4.9 5.0 3.9 2.6 2.5 4.0 2.1 8.6 9.0 14.9 6.7 7.8 9.6 7.1 9.9 13.6 11.6 10.0 8.9 10.4 8.6 9.6 7.5 6.4 7.5 6.8 4.7 2.7 2.8 2.3 2.0 1.1 1.0 0.9
0.0 0.0 0.0 0.0 0.0 0.0 0.0 0.0 0.0 0.0 13.5 58.4 41.2 39.7 20.9 8.9 8.2 6.6 4.7 4.0 1.8 1.5 2.2 1.1 1.3 3.3 4.6 11.0 6.9 4.8 10.9 4.6 2.7 5.4 7.2 7.7 5.7 4.0 3.4 3.6 5.2 3.9 2.6 1.3 0.8 0.6 0.6 1.0 0.9 0.7 0.5 0.4 0.3 0.1
0.0 0.0 0.0 0.0 0.0 0.0 0.0 0.0 0.1 5.2 50.6 53.9 38.4 22.5 4.9 2.2 3.2 1.9 1.5 1.2 0.5 0.4 0.8 2.7 8.1 13.6 9.9 8.7 9.5 6.5 7.9 6.6 5.8 4.5 4.5 2.6 0.5 0.6 0.5 1.5 2.2 1.0 0.8 1.2 0.8 0.0 0.0 0.0 0.0 0.2 0.2 0.2 0.2 0.3
0.0 0.1 0.0 0.0 0.0 0.0 0.0 2.6 27.9 65.3 68.3 56.6 26.4 7.4 5.7 5.5 5.5 2.6 0.6 0.1 0.0 2.7 5.6 7.9 15.7 11.7 4.2 7.6 4.6 2.7 5.4 5.0 2.6 2.9 1.0 0.0 0.0 0.0 0.5 0.9 1.7 0.8 1.1 1.6 1.2 0.3 0.0 0.0 0.0 0.0 0.0 0.1 0.1 0.1
0.1 0.0 0.0 0.0 0.0 0.0 1.3 27.3 56.3 72.6 64.0 20.3 8.1 5.1 3.8 4.1 3.1 1.4 0.2 0.5 1.2 3.0 3.9 7.1 5.5 9.3 11.5 10.3 7.6 8.2 6.6 4.1 0.9 0.4 0.0 0.0 0.0 0.0 0.0 0.6 1.3 1.5 1.5 1.2 0.7 0.0 0.3 0.1 0.2 0.4 0.3 0.7 0.3 0.3
0.1 0.0 0.0 0.0 0.0 17.0 71.5 75.2 42.1 50.8 22.2 7.4 4.9 3.5 2.4 1.1 0.8 0.8 0.2 0.4 0.9 1.8 4.5 8.9 15.6 12.5 7.0 9.6 10.0 6.0 3.0 0.5 0.2 0.0 0.0 0.0 0.0 0.0 0.0 0.0 0.0 0.0 0.5 0.6 0.6 0.4 0.2 0.1 0.5 1.5 1.3 0.7 0.9 0.8
0.0 0.0 0.0 0.0 0.0 50.7 68.5 62.4 28.2 19.2 11.6 7.9 5.5 6.3 5.8 3.3 0.6 0.7 0.4 0.2 0.5 4.0 9.9 15.7 9.9 7.2 7.6 8.1 6.0 3.0 1.2 0.0 0.0 0.0 0.0 0.0 0.0 0.0 0.0 0.0 0.0 0.0 0.0 0.0 0.0 0.0 0.1 0.9 0.2 0.0 0.3 0.7 1.5 1.2
0.0 0.0 0.0 0.0 23.3 48.6 49.3 31.5 25.0 15.1 10.7 9.9 11.1 9.0 10.9 4.6 2.9 1.7 3.2 1.1 7.7 12.8 13.8 11.8 9.2 7.8 6.5 4.3 1.4 0.1 0.1 0.0 0.0 0.0 0.0 0.0 0.0 0.0 0.0 0.0 0.0 0.0 0.1 0.1 0.5 0.9 0.3 0.4 0.7 0.3 0.5 0.7 0.1 0.6
1.4 0.0 6.9 5.3 54.7 48.1 38.4 17.9 17.4 12.7 8.3 12.4 14.0 11.5 12.5 11.9 11.4 10.1 6.7 12.5 18.7 12.0 9.9 9.4 6.4 4.8 3.3 1.7 0.6 0.8 0.0 0.4 0.0 0.0 0.0 0.0 0.0 0.0 0.0 0.0 0.0 0.7 1.0 0.9 1.3 1.6 0.9 0.7 1.7 2.2 1.1 0.7 0.5 0.6
0.3 2.0 27.4 35.3 50.3 36.0 32.5 13.7 15.1 14.9 17.9 20.2 16.2 16.6 18.3 15.0 14.8 11.2 20.0 14.0 11.5 9.9 7.8 6.2 4.5 4.1 2.8 1.6 0.7 0.3 0.1 0.0 0.0 0.2 0.1 0.0 0.0 0.0 0.0 0.1 0.7 2.9 2.8 0.8 0.0 2.2 2.4 1.3 1.1 2.3 1.6 0.9 0.8 1.2
0.0 39.1 52.4 46.1 28.6 24.5 14.8 16.1 9.7 8.5 14.2 16.2 16.8 16.2 11.9 13.0 14.5 17.9 14.0 7.4 8.1 7.5 5.7 5.4 4.2 2.5 2.8 2.3 2.0 1.6 0.9 0.5 0.2 0.1 0.7 0.5 0.5 0.4 0.1 0.6 0.8 1.0 1.7 1.7 2.7 2.9 2.4 2.9 2.8 3.3 2.8 3.5 2.8 4.5
73.1 70.5 39.0 34.1 16.2 9.7 6.2 7.7 8.9 8.2 7.8 9.7 10.8 12.2 10.6 11.4 15.3 12.1 7.3 6.9 7.8 8.1 6.5 4.7 3.9 3.9 2.7 3.2 2.1 2.2 1.7 2.5 2.8 1.4 0.6 1.5 3.6 3.1 0.6 0.7 0.3 0.6 2.6 6.0 4.8 3.7 3.0 4.8 5.1 4.2 3.9 5.1 5.3 4.4
52.0 24.2 22.9 6.8 2.4 0.3 1.0 2.1 3.7 4.6 5.1 7.2 8.3 8.1 9.4 10.3 8.7 7.6 5.6 6.5 7.6 8.6 8.7 7.4 5.0 3.3 4.2 3.1 4.5 3.8 3.0 2.5 2.4 4.7 3.2 3.2 3.8 6.2 4.4 2.4 1.6 2.1 2.1 9.2 13.7 11.7 7.9 6.0 7.1 5.8 6.1 4.6 5.0 7.7
24.4 9.9 4.5 0.5 0.7 0.8 0.7 1.0 1.2 2.0 5.2 5.1 4.2 4.1 6.0 10.8 5.9 3.9 3.5 4.6 6.6 7.8 8.2 7.7 6.7 5.5 5.0 5.0 4.8 4.6 4.6 4.1 5.4 3.4 4.2 4.5 4.1 4.0 6.5 12.8 10.6 2.9 5.6 10.2 12.2 13.3 13.4 9.8 9.0 8.6 8.3 6.5 5.8 6.2
3.5 0.2 0.7 0.2 0.1 0.8 1.0 1.1 1.3 1.3 1.8 1.1 2.7 4.0 4.5 3.3 1.3 1.8 3.0 3.8 6.6 7.7 8.5 8.8 8.1 6.4 6.7 6.4 6.3 8.6 8.7 7.6 7.2 6.1 5.0 5.1 5.7 8.0 8.9 10.3 10.8 11.0 12.8 12.8 17.4 15.9 14.0 13.0 12.6 10.7 10.0 8.2 4.8 4.9
1.5 0.0 0.0 1.6 3.1 3.9 3.6 2.3 1.1 0.6 0.4 0.5 1.4 1.6 0.6 0.9 1.5 1.7 2.6 4.7 6.7 7.8 9.3 10.0 10.5 9.1 10.5 9.9 9.3 9.1 9.8 9.9 10.8 8.1 3.7 4.1 4.9 7.1 11.4 12.7 12.9 14.0 13.6 13.1 9.7 12.4 13.6 14.8 14.2 13.2 10.4 8.1 5.9 7.1
1.1 1.4 1.9 3.1 2.4 1.5 1.5 0.6 0.2 0.4 1.0 1.1 1.0 0.7 0.2 0.7 1.9 2.4 2.8 3.8 6.2 8.5 10.8 11.9 12.5 14.0 12.3 10.5 10.8 11.3 13.1 13.4 12.2 12.3 10.7 5.0 4.9 6.3 10.2 14.0 15.4 12.7 13.7 14.7 13.8 12.6 9.2 9.9 9.4 10.5 10.4 9.7 9.2 9.6
2.6 3.1 2.6 2.2 1.4 1.3 2.0 2.8 3.9 3.4 2.8 1.9 1.5 1.3 0.9 0.2 1.0 1.7 2.2 3.4 4.7 7.6 11.2 12.3 13.4 15.5 14.8 12.1 12.1 11.5 10.5 10.7 11.3 11.7 12.3 13.4 11.7 12.7 15.0 17.1 15.9 15.9 15.5 15.5 13.3 13.1 11.9 9.4 8.1 8.4 7.8 7.7 8.1 7.4
3.4 3.0 2.3 1.7 1.4 3.5 4.4 3.9 3.3 2.7 2.4 1.6 1.2 0.7 1.5 1.4 1.0 0.7 1.5 3.3 5.7 8.8 10.8 12.4 12.8 12.7 11.5 12.3 10.9 10.9 9.2 9.2 9.0 10.0 11.1 12.7 12.3 11.1 14.1 14.6 13.8 13.6 14.2 15.4 14.1 13.8 12.9 11.5 11.7 11.2 11.0 10.6 10.1 9.3
4.9 4.0 3.5 3.9 4.7 4.1 4.0 2.2 2.8 2.9 2.1 1.7 1.2 0.8 0.8 1.2 1.8 0.9 2.0 3.1 4.9 6.6 7.5 7.6 9.0 11.4 11.2 10.3 10.0 10.4 9.3 11.7 10.8 10.0 11.5 11.7 11.1 11.9 14.7 12.0 10.6 11.5 12.5 13.8 14.6 14.0 14.5 13.7 12.6 11.7 11.7 11.1 11.1 10.9